Nebraska City, NE

2:25 AM CST on February 26, 2017 (GMT -0600)
Nebraska City Municipal

Weather History for KAFK - January, 2012

Change the Weather History Date:

Monday, January 2, 2012

  Actual Average (KSDA) Record (KSDA)
Temperature  
Mean Temperature 26 °F -  
Max Temperature 32 °F 31 °F 60 °F (1964)
Min Temperature 19 °F 14 °F -16 °F (2001)
Degree Days  
Heating Degree Days 40    
Moisture  
Dew Point 9 °F    
Average Humidity 51    
Maximum Humidity 74    
Minimum Humidity 32    
Precipitation  
Precipitation 0.00 in - - ()
Sea Level Pressure  
Sea Level Pressure 30.57 in    
Wind  
Wind Speed 12 mph (NW)    
Max Wind Speed 20 mph    
Max Gust Speed 26 mph    
Visibility 10 miles    
Events      
Averages and records for this station are not official NWS values.
T = Trace of Precipitation, MM = Missing Value Source: NWS Daily Summary

Daily Weather History Graph

Daily Weather History Graph

Search for Another Location

Airport or City:

Trip Planner

Search our weather history database for the weather conditions in past years. The results will help you decide how hot, cold, wet, or windy it might be!

Date:

Astronomy

Jan. 02, 2012 Rise Set
Actual Time 7:47 AM CST 5:07 PM CST
Civil Twilight 7:16 AM CST 5:38 PM CST
Nautical Twilight 6:42 AM CST 6:12 PM CST
Astronomical Twilight 6:09 AM CST 6:45 PM CST
Moon 12:25 PM CST (1/2) 1:40 AM CST (1/2)
Length of Visible Light 10h 21m
Length of Day
9h 20m
Waxing Gibbous, 64% of the Moon is Illuminated
Jan 2
Waxing Gibbous
Jan 9
Full
Jan 16
Last Quarter
Jan 23
New
Jan 30
First Quarter

Hourly Weather History & Observations

Time (CST) Temp. Windchill Dew Point Humidity Pressure Visibility Wind Dir Wind Speed Gust Speed Precip Events Conditions
12:15 AM 26.6 °F 16.2 °F 14.0 °F 59% 30.55 in 10.0 mi NW 11.5 mph - N/A   Clear
12:35 AM 26.6 °F 16.2 °F 14.0 °F 59% 30.55 in 10.0 mi NW 11.5 mph - N/A   Clear
1:15 AM 24.8 °F 14.0 °F 14.0 °F 64% 30.56 in 10.0 mi NW 11.5 mph - N/A   Clear
1:35 AM 24.8 °F 12.9 °F 14.0 °F 64% 30.56 in 10.0 mi NW 13.8 mph - N/A   Clear
1:55 AM 24.8 °F 13.4 °F 14.0 °F 64% 30.56 in 10.0 mi NW 12.7 mph - N/A   Clear
2:15 AM 23.0 °F 12.4 °F 14.0 °F 68% 30.57 in 10.0 mi NW 10.4 mph - N/A   Clear
2:35 AM 23.0 °F 11.7 °F 14.0 °F 68% 30.57 in 10.0 mi NW 11.5 mph - N/A   Clear
2:55 AM 23.0 °F 11.7 °F 14.0 °F 68% 30.57 in 10.0 mi NW 11.5 mph - N/A   Clear
3:15 AM 23.0 °F 11.1 °F 14.0 °F 68% 30.58 in 10.0 mi NW 12.7 mph - N/A   Clear
3:35 AM 23.0 °F 11.7 °F 14.0 °F 68% 30.58 in 10.0 mi WNW 11.5 mph 18.4 mph N/A   Clear
3:55 AM 21.2 °F 8.9 °F 14.0 °F 74% 30.58 in 10.0 mi WNW 12.7 mph 17.3 mph N/A   Clear
4:35 AM 21.2 °F 8.9 °F 14.0 °F 74% 30.58 in 10.0 mi WNW 12.7 mph 19.6 mph N/A   Clear
4:55 AM 21.2 °F 8.9 °F 12.2 °F 68% 30.57 in 10.0 mi WNW 12.7 mph - N/A   Clear
5:15 AM 21.2 °F 8.3 °F 12.2 °F 68% 30.57 in 10.0 mi WNW 13.8 mph - N/A   Clear
5:35 AM 21.2 °F 9.5 °F 12.2 °F 68% 30.57 in 10.0 mi WNW 11.5 mph - N/A   Clear
5:55 AM 21.2 °F 8.9 °F 12.2 °F 68% 30.58 in 10.0 mi WNW 12.7 mph - N/A   Clear
6:15 AM 21.2 °F 8.9 °F 12.2 °F 68% 30.57 in 10.0 mi WNW 12.7 mph 18.4 mph N/A   Clear
6:55 AM 21.2 °F 9.5 °F 12.2 °F 68% 30.57 in 10.0 mi WNW 11.5 mph - N/A   Clear
7:15 AM 21.2 °F 8.3 °F 12.2 °F 68% 30.57 in 10.0 mi NW 13.8 mph 17.3 mph N/A   Clear
7:35 AM 19.4 °F 6.0 °F 12.2 °F 74% 30.58 in 10.0 mi WNW 13.8 mph - N/A   Clear
7:55 AM 19.4 °F 6.6 °F 10.4 °F 68% 30.59 in 10.0 mi WNW 12.7 mph - N/A   Clear
8:15 AM 21.2 °F 8.3 °F 12.2 °F 68% 30.59 in 10.0 mi WNW 13.8 mph - N/A   Clear
8:35 AM 21.2 °F 8.3 °F 12.2 °F 68% 30.60 in 10.0 mi WNW 13.8 mph - N/A   Clear
8:55 AM 21.2 °F 7.8 °F 12.2 °F 68% 30.62 in 10.0 mi WNW 15.0 mph 20.7 mph N/A   Clear
9:15 AM 23.0 °F 9.6 °F 12.2 °F 63% 30.62 in 10.0 mi NW 16.1 mph 21.9 mph N/A   Clear
9:35 AM 24.8 °F 11.5 °F 10.4 °F 54% 30.63 in 10.0 mi NW 17.3 mph 25.3 mph N/A   Clear
10:15 AM 26.6 °F 13.4 °F 8.6 °F 47% 30.63 in 10.0 mi NNW 18.4 mph 25.3 mph N/A   Clear
10:35 AM 28.4 °F 15.4 °F 8.6 °F 43% 30.63 in 10.0 mi NNW 19.6 mph 23.0 mph N/A   Clear
10:55 AM 28.4 °F 15.8 °F 8.6 °F 43% 30.62 in 10.0 mi NW 18.4 mph 24.2 mph N/A   Clear
11:15 AM 30.2 °F 18.9 °F 8.6 °F 40% 30.62 in 10.0 mi NNW 16.1 mph 21.9 mph N/A   Clear
11:55 AM 32.0 °F 20.5 °F 6.8 °F 35% 30.60 in 10.0 mi NNW 18.4 mph 24.2 mph N/A   Clear
12:15 PM 32.0 °F 20.1 °F 5.0 °F 32% 30.59 in 10.0 mi NNW 19.6 mph 24.2 mph N/A   Clear
12:35 PM 32.0 °F 20.5 °F 6.8 °F 35% 30.59 in 10.0 mi NNW 18.4 mph 25.3 mph N/A   Clear
12:55 PM 32.0 °F 20.5 °F 6.8 °F 35% 30.58 in 10.0 mi NNW 18.4 mph 25.3 mph N/A   Clear
1:15 PM 32.0 °F 20.8 °F 6.8 °F 35% 30.58 in 10.0 mi NNW 17.3 mph 23.0 mph N/A   Clear
1:55 PM 32.0 °F 21.2 °F 5.0 °F 32% 30.56 in 10.0 mi North 16.1 mph 26.5 mph N/A   Clear
2:15 PM 32.0 °F 21.2 °F 5.0 °F 32% 30.56 in 10.0 mi NNW 16.1 mph - N/A   Clear
2:35 PM 32.0 °F 22.5 °F 5.0 °F 32% 30.56 in 10.0 mi NNW 12.7 mph 23.0 mph N/A   Clear
2:55 PM 32.0 °F 21.2 °F 5.0 °F 32% 30.56 in 10.0 mi NNW 16.1 mph 20.7 mph N/A   Clear
3:15 PM 32.0 °F 20.8 °F 5.0 °F 32% 30.56 in 10.0 mi NNW 17.3 mph 21.9 mph N/A   Clear
3:35 PM 32.0 °F 20.5 °F 5.0 °F 32% 30.56 in 10.0 mi NNW 18.4 mph - N/A   Clear
3:55 PM 32.0 °F 21.6 °F 5.0 °F 32% 30.56 in 10.0 mi NNW 15.0 mph - N/A   Clear
4:15 PM 32.0 °F 22.5 °F 5.0 °F 32% 30.57 in 10.0 mi NNW 12.7 mph - N/A   Clear
4:35 PM 32.0 °F 24.8 °F 5.0 °F 32% 30.56 in 10.0 mi NNW 8.1 mph - N/A   Clear
4:55 PM 30.2 °F 23.4 °F 5.0 °F 34% 30.56 in 10.0 mi North 6.9 mph - N/A   Clear
5:15 PM 28.4 °F 22.2 °F 5.0 °F 37% 30.56 in 10.0 mi North 5.8 mph - N/A   Clear
5:35 PM 28.4 °F 22.2 °F 5.0 °F 37% 30.55 in 10.0 mi NNW 5.8 mph - N/A   Clear
6:15 PM 26.6 °F 22.6 °F 5.0 °F 40% 30.55 in 10.0 mi NNW 3.5 mph - N/A   Clear
6:35 PM 24.8 °F - 5.0 °F 43% 30.54 in 10.0 mi Calm Calm - N/A   Clear
6:55 PM 26.6 °F 21.2 °F 5.0 °F 40% 30.53 in 10.0 mi NNE 4.6 mph - N/A   Clear
7:35 PM 26.6 °F - 5.0 °F 40% 30.53 in 10.0 mi Calm Calm - N/A   Clear
7:55 PM 26.6 °F - 5.0 °F 40% 30.53 in 10.0 mi Calm Calm - N/A   Clear
8:15 PM 24.8 °F - 5.0 °F 43% 30.52 in 10.0 mi Calm Calm - N/A   Clear
8:35 PM 23.0 °F 17.0 °F 6.8 °F 50% 30.52 in 10.0 mi East 4.6 mph - N/A   Clear
8:55 PM 24.8 °F - 6.8 °F 46% 30.52 in 10.0 mi Calm Calm - N/A   Clear
9:15 PM 23.0 °F 17.0 °F 6.8 °F 50% 30.52 in 10.0 mi SSE 4.6 mph - N/A   Clear
9:35 PM 23.0 °F 17.0 °F 6.8 °F 50% 30.51 in 10.0 mi South 4.6 mph - N/A   Clear
9:55 PM 23.0 °F 18.4 °F 8.6 °F 54% 30.52 in 10.0 mi SSW 3.5 mph - N/A   Clear
10:15 PM 21.2 °F 14.9 °F 8.6 °F 58% 30.51 in 10.0 mi SSW 4.6 mph - N/A   Clear
10:35 PM 21.2 °F 14.9 °F 8.6 °F 58% 30.51 in 10.0 mi SW 4.6 mph - N/A   Clear
10:55 PM 19.4 °F 12.8 °F 6.8 °F 58% 30.51 in 10.0 mi SSW 4.6 mph - N/A   Clear
11:15 PM 21.2 °F 14.9 °F 6.8 °F 54% 30.49 in 10.0 mi South 4.6 mph - N/A   Clear
11:35 PM 19.4 °F 11.5 °F 6.8 °F 58% 30.48 in 10.0 mi South 5.8 mph - N/A   Clear
11:55 PM 19.4 °F 11.5 °F 6.8 °F 58% 30.48 in 10.0 mi South 5.8 mph - N/A   Clear